Regional Weather Roundup
Issued by NWS Charleston, WV

Home | Current Version | Previous Version | Graphics & Text | Print | Product List | Glossary On
Versions: 1 2 3 4 5 6 7 8 9 10 11 12 13 14 15 16 17 18 19 20 21 22 23 24 25 26 27 28 29 30 31 32 33 34 35 36 37 38 39 40 41 42 43 44 45 46 47 48 49 50
000
ASUS41 KRLX 110410
RWRRLX
West Virginia Regional Weather Roundup
National Weather Service Charleston WV
1200 AM EDT FRI JUL 11 2014

Note: "fair" indicates few or no clouds below 12,000 feet with no
significant weather and/or obstructions to visibility.

WVZ003-110500-
Northern Panhandle of West Virginia

CITY           SKY/WX    TMP DP  RH WIND       PRES   REMARKS
WHEELING       PTCLDY    68  58  70 CALM      30.15S
$$

WVZ009-110500-
Northwest West Virginia

CITY           SKY/WX    TMP DP  RH WIND       PRES   REMARKS
PARKERSBURG    CLEAR     64  62  93 CALM      30.17R
$$

WVZ006-110500-
Western West Virginia

CITY           SKY/WX    TMP DP  RH WIND       PRES   REMARKS
HUNTINGTON     CLOUDY    68  62  81 CALM      30.15R
$$

WVZ015-110500-
West Central West Virginia

CITY           SKY/WX    TMP DP  RH WIND       PRES   REMARKS
CHARLESTON     PTCLDY    67  67 100 CALM      30.15R
$$

WVZ031-110500-
North Central West Virginia

CITY           SKY/WX    TMP DP  RH WIND       PRES   REMARKS
CLARKSBURG     CLEAR     64  62  93 CALM      30.15R
MORGANTOWN     CLEAR     68  62  81 CALM      30.16S
$$

WVZ035-042-045-110500-
South Central West Virginia

CITY           SKY/WX    TMP DP  RH WIND       PRES   REMARKS
BECKLEY        CLEAR     64  59  83 CALM      30.22R
BLUEFIELD      CLEAR     67  57  70 CALM      30.24R
LEWISBURG      CLEAR     64  60  85 CALM      30.21R
$$

WVZ047-110500-
Northern Mountains of West Virginia

CITY           SKY/WX    TMP DP  RH WIND       PRES   REMARKS
ELKINS         CLEAR     61  58  90 SE3       30.20S
$$

WVZ052-110500-
Eastern Panhandle of West Virginia

CITY           SKY/WX    TMP DP  RH WIND       PRES   REMARKS
MARTINSBURG    MOCLDY    71  63  75 CALM      30.16S
PETERSBURG     PTCLDY    63  59  87 CALM      30.19R FOG
$$



USA.gov is the U.S. government's official web portal to all federal, state and local government web resources and services.